カタログに戻る

FENGYUN 1C DEB

運用中SSO
NORAD 38137·DEBRIS·🇨🇳 China

打ち上げ May 10, 1999 から Taiyuan Satellite Launch Center

Loading…

次のパス (今後24時間)

TLE

経年Source: Space-Track

元期: Sep 3, 2026, 22:40 UTC

1 38137U 99025EQJ 26246.94451423  .00000010  00000-0  31669-4 0  9999
2 38137  98.8336 288.6878 0046437  46.1068 314.3921 14.06382224674368

AllMySatでFENGYUN 1C DEBをリアルタイム追跡

Download on the App Store